Time,TemperatureF,DewpointF,PressureIn,WindDirection,WindDirectionDegrees,WindSpeedMPH,WindSpeedGustMPH,Humidity,HourlyPrecipIn,Conditions,Clouds,dailyrainin,SoftwareType,DateUTC
2013-04-07 00:02:00,53.0,50.0,30.09,North,8,0.0,0.0,89,0.00,,,0.00,,2013-04-07 05:02:00,
2013-04-07 00:12:00,53.0,50.0,30.09,North,8,0.0,0.0,89,0.00,,,0.00,,2013-04-07 05:12:00,
2013-04-07 00:23:00,52.0,49.0,30.09,North,8,0.0,0.0,90,0.00,,,0.00,,2013-04-07 05:23:00,
2013-04-07 00:33:00,52.0,49.0,30.10,North,8,0.0,0.0,90,0.00,,,0.00,,2013-04-07 05:33:00,
2013-04-07 00:43:00,52.0,49.0,30.10,North,8,0.0,0.0,90,0.00,,,0.00,,2013-04-07 05:43:00,
2013-04-07 00:50:00,51.0,49.0,30.10,North,8,0.0,0.0,93,0.00,,,0.00,,2013-04-07 05:50:00,
2013-04-07 00:53:00,51.0,49.0,30.10,North,8,0.0,0.0,92,0.00,,,0.00,,2013-04-07 05:53:00,
2013-04-07 01:02:00,51.0,49.0,30.10,North,8,0.0,0.0,93,0.00,,,0.00,,2013-04-07 06:02:00,
2013-04-07 01:12:00,51.0,49.0,30.10,North,8,0.0,0.0,93,0.00,,,0.00,,2013-04-07 06:12:00,
2013-04-07 01:22:00,51.0,49.0,30.10,North,8,0.0,0.0,93,0.00,,,0.00,,2013-04-07 06:22:00,
2013-04-07 01:32:00,51.0,49.0,30.10,North,8,0.0,0.0,93,0.00,,,0.00,,2013-04-07 06:32:00,
2013-04-07 01:43:00,51.0,49.0,30.10,North,8,0.0,0.0,93,0.00,,,0.00,,2013-04-07 06:43:00,
2013-04-07 03:23:00,48.0,47.0,30.06,East,83,0.0,0.0,95,0.00,,,0.00,,2013-04-07 08:23:00,
2013-04-07 03:33:00,48.0,47.0,30.06,East,83,0.0,0.0,95,0.00,,,0.00,,2013-04-07 08:33:00,
2013-04-07 03:43:00,48.0,47.0,30.06,East,83,0.0,0.0,95,0.00,,,0.00,,2013-04-07 08:43:00,
2013-04-07 03:53:00,48.0,47.0,30.06,East,83,0.0,0.0,95,0.00,,,0.00,,2013-04-07 08:53:00,
2013-04-07 04:02:00,48.0,47.0,30.06,East,83,0.0,0.0,95,0.00,,,0.00,,2013-04-07 09:02:00,
2013-04-07 04:23:00,47.0,46.0,30.06,ENE,68,0.0,2.0,95,0.00,,,0.00,,2013-04-07 09:23:00,
2013-04-07 04:34:00,47.0,46.0,30.07,ENE,68,0.0,1.0,96,0.00,,,0.00,,2013-04-07 09:34:00,
2013-04-07 04:53:00,47.0,46.0,30.06,ENE,70,0.0,0.0,96,0.00,,,0.00,,2013-04-07 09:53:00,
2013-04-07 05:04:00,48.0,47.0,30.06,ENE,70,0.0,1.0,96,0.00,,,0.00,,2013-04-07 10:04:00,
2013-04-07 05:14:00,48.0,47.0,30.06,ENE,70,0.0,1.0,96,0.00,,,0.00,,2013-04-07 10:14:00,
2013-04-07 05:23:00,48.0,47.0,30.06,ENE,70,0.0,0.0,96,0.00,,,0.00,,2013-04-07 10:23:00,
2013-04-07 05:34:00,48.0,47.0,30.07,ENE,70,0.0,0.0,96,0.00,,,0.00,,2013-04-07 10:34:00,
2013-04-07 05:43:00,48.0,47.0,30.07,ENE,70,0.0,0.0,96,0.00,,,0.00,,2013-04-07 10:43:00,
2013-04-07 05:53:00,48.0,47.0,30.08,ENE,70,0.0,0.0,96,0.00,,,0.00,,2013-04-07 10:53:00,
2013-04-07 06:03:00,48.0,47.0,30.08,ENE,71,0.0,0.0,97,0.00,,,0.00,,2013-04-07 11:03:00,
2013-04-07 06:13:00,48.0,47.0,30.08,ENE,71,0.0,0.0,97,0.00,,,0.00,,2013-04-07 11:13:00,
2013-04-07 06:23:00,48.0,47.0,30.09,ENE,71,0.0,0.0,97,0.00,,,0.00,,2013-04-07 11:23:00,
2013-04-07 06:33:00,48.0,47.0,30.09,ENE,70,0.0,1.0,97,0.00,,,0.00,,2013-04-07 11:33:00,
2013-04-07 06:43:00,48.0,47.0,30.09,ENE,70,0.0,1.0,97,0.00,,,0.00,,2013-04-07 11:43:00,
2013-04-07 06:52:00,48.0,47.0,30.10,ENE,70,0.0,0.0,97,0.00,,,0.00,,2013-04-07 11:52:00,
2013-04-07 07:03:00,48.0,47.0,30.10,ENE,70,0.0,1.0,97,0.00,,,0.00,,2013-04-07 12:03:00,
2013-04-07 07:12:00,48.0,47.0,30.10,ENE,70,0.0,1.0,97,0.00,,,0.00,,2013-04-07 12:12:00,
2013-04-07 07:23:00,48.0,47.0,30.11,ENE,71,0.0,2.0,97,0.00,,,0.00,,2013-04-07 12:23:00,
2013-04-07 07:34:00,49.0,48.0,30.11,ENE,70,0.0,3.0,97,0.00,,,0.00,,2013-04-07 12:34:00,
2013-04-07 07:43:00,49.0,48.0,30.11,ENE,70,0.0,3.0,97,0.00,,,0.00,,2013-04-07 12:43:00,
2013-04-07 07:53:00,52.0,51.0,30.11,East,86,0.0,1.0,96,0.00,,,0.00,,2013-04-07 12:53:00,
2013-04-07 08:05:00,54.0,52.0,30.11,East,81,0.0,1.0,92,0.00,,,0.00,,2013-04-07 13:05:00,
2013-04-07 08:13:00,54.0,52.0,30.11,East,81,0.0,1.0,92,0.00,,,0.00,,2013-04-07 13:13:00,
2013-04-07 08:23:00,56.0,52.0,30.12,ESE,118,1.0,4.0,88,0.00,,,0.00,,2013-04-07 13:23:00,
2013-04-07 08:33:00,57.0,53.0,30.12,ENE,77,1.0,5.0,85,0.00,,,0.00,,2013-04-07 13:33:00,
2013-04-07 08:43:00,57.0,53.0,30.12,ENE,77,1.0,5.0,85,0.00,,,0.00,,2013-04-07 13:43:00,
2013-04-07 08:52:00,59.0,54.0,30.12,NE,56,3.0,6.0,83,0.00,,,0.00,,2013-04-07 13:52:00,
2013-04-07 09:02:00,61.0,55.0,30.12,ESE,122,2.0,4.0,82,0.00,,,0.00,,2013-04-07 14:02:00,
2013-04-07 09:13:00,61.0,55.0,30.12,ESE,122,2.0,4.0,82,0.00,,,0.00,,2013-04-07 14:13:00,
2013-04-07 09:23:00,62.0,56.0,30.12,SE,131,2.0,6.0,81,0.00,,,0.00,,2013-04-07 14:23:00,
2013-04-07 09:33:00,63.0,56.0,30.12,East,80,2.0,6.0,79,0.00,,,0.00,,2013-04-07 14:33:00,
2013-04-07 09:44:00,63.0,56.0,30.12,East,80,2.0,6.0,79,0.00,,,0.00,,2013-04-07 14:44:00,
2013-04-07 09:53:00,65.0,57.0,30.13,ESE,118,2.0,5.0,76,0.00,,,0.00,,2013-04-07 14:53:00,
2013-04-07 10:03:00,66.0,57.0,30.13,ESE,120,1.0,5.0,74,0.00,,,0.00,,2013-04-07 15:03:00,
2013-04-07 10:13:00,67.0,58.0,30.13,SSE,155,1.0,4.0,73,0.00,,,0.00,,2013-04-07 15:13:00,
2013-04-07 10:22:00,67.0,58.0,30.13,SSE,155,1.0,4.0,73,0.00,,,0.00,,2013-04-07 15:22:00,
2013-04-07 10:35:00,68.0,58.0,30.14,ESE,115,1.0,4.0,71,0.00,,,0.00,,2013-04-07 15:35:00,
2013-04-07 10:45:00,68.0,58.0,30.14,ESE,115,1.0,4.0,71,0.00,,,0.00,,2013-04-07 15:45:00,
2013-04-07 10:53:00,69.0,59.0,30.14,WSW,252,1.0,6.0,70,0.00,,,0.00,,2013-04-07 15:53:00,
2013-04-07 11:05:00,70.0,58.0,30.13,SW,229,3.0,8.0,66,0.00,,,0.00,,2013-04-07 16:05:00,
2013-04-07 11:14:00,70.0,58.0,30.13,SW,229,3.0,8.0,66,0.00,,,0.00,,2013-04-07 16:14:00,
2013-04-07 11:25:00,72.0,60.0,30.14,East,98,2.0,5.0,67,0.00,,,0.00,,2013-04-07 16:25:00,
2013-04-07 11:34:00,73.0,59.0,30.14,SSW,211,5.0,9.0,62,0.00,,,0.00,,2013-04-07 16:34:00,
2013-04-07 11:43:00,73.0,59.0,30.14,SSW,211,5.0,9.0,62,0.00,,,0.00,,2013-04-07 16:43:00,
2013-04-07 11:53:00,73.0,60.0,30.13,SE,140,2.0,7.0,63,0.00,,,0.00,,2013-04-07 16:53:00,
2013-04-07 12:05:00,74.0,60.0,30.12,SE,140,3.0,10.0,61,0.00,,,0.00,,2013-04-07 17:05:00,
2013-04-07 12:13:00,74.0,60.0,30.12,SE,140,3.0,10.0,61,0.00,,,0.00,,2013-04-07 17:13:00,
2013-04-07 12:23:00,74.0,59.0,30.12,SSW,209,3.0,10.0,59,0.00,,,0.00,,2013-04-07 17:23:00,
2013-04-07 12:33:00,73.0,59.0,30.11,SSE,160,2.0,10.0,61,0.00,,,0.00,,2013-04-07 17:33:00,
2013-04-07 12:43:00,73.0,59.0,30.11,SSE,160,2.0,10.0,61,0.00,,,0.00,,2013-04-07 17:43:00,
2013-04-07 12:53:00,74.0,59.0,30.10,SW,215,3.0,9.0,59,0.00,,,0.00,,2013-04-07 17:53:00,
2013-04-07 13:03:00,74.0,59.0,30.09,SSW,203,1.0,7.0,60,0.00,,,0.00,,2013-04-07 18:03:00,
2013-04-07 13:14:00,74.0,59.0,30.09,SSW,203,1.0,7.0,60,0.00,,,0.00,,2013-04-07 18:14:00,
2013-04-07 13:23:00,75.0,58.0,30.09,SSW,201,4.0,10.0,56,0.00,,,0.00,,2013-04-07 18:23:00,
2013-04-07 13:33:00,76.0,58.0,30.08,SSW,201,0.0,9.0,54,0.00,,,0.00,,2013-04-07 18:33:00,
2013-04-07 13:43:00,76.0,58.0,30.08,SSW,201,0.0,9.0,54,0.00,,,0.00,,2013-04-07 18:43:00,
2013-04-07 13:52:00,77.0,59.0,30.07,SE,146,1.0,10.0,54,0.00,,,0.00,,2013-04-07 18:52:00,
2013-04-07 14:03:00,77.0,56.0,30.06,SE,142,3.0,9.0,48,0.00,,,0.00,,2013-04-07 19:03:00,
2013-04-07 14:13:00,77.0,56.0,30.06,SE,142,3.0,9.0,48,0.00,,,0.00,,2013-04-07 19:13:00,
2013-04-07 14:23:00,76.0,57.0,30.06,WSW,255,2.0,8.0,52,0.00,,,0.00,,2013-04-07 19:23:00,
2013-04-07 14:33:00,75.0,57.0,30.05,WSW,239,2.0,9.0,54,0.00,,,0.00,,2013-04-07 19:33:00,
2013-04-07 14:43:00,75.0,57.0,30.05,WSW,239,2.0,9.0,54,0.00,,,0.00,,2013-04-07 19:43:00,
2013-04-07 14:53:00,76.0,57.0,30.04,SW,215,2.0,8.0,52,0.00,,,0.00,,2013-04-07 19:53:00,
2013-04-07 15:03:00,76.0,57.0,30.04,SW,235,4.0,9.0,52,0.00,,,0.00,,2013-04-07 20:03:00,
2013-04-07 15:13:00,76.0,57.0,30.04,SW,235,4.0,9.0,52,0.00,,,0.00,,2013-04-07 20:13:00,
2013-04-07 15:23:00,77.0,57.0,30.03,SW,231,2.0,10.0,50,0.00,,,0.00,,2013-04-07 20:23:00,
2013-04-07 15:33:00,78.0,57.0,30.02,WSW,249,2.0,10.0,49,0.00,,,0.00,,2013-04-07 20:33:00,
2013-04-07 15:52:00,76.0,58.0,30.03,South,188,3.0,8.0,54,0.00,,,0.00,,2013-04-07 20:52:00,
2013-04-07 16:04:00,78.0,58.0,30.02,SE,131,3.0,6.0,50,0.00,,,0.00,,2013-04-07 21:04:00,
2013-04-07 16:14:00,78.0,58.0,30.02,SE,131,3.0,6.0,50,0.00,,,0.00,,2013-04-07 21:14:00,
2013-04-07 16:23:00,78.0,57.0,30.02,East,88,2.0,6.0,49,0.00,,,0.00,,2013-04-07 21:23:00,
2013-04-07 16:34:00,77.0,57.0,30.01,South,172,1.0,7.0,51,0.00,,,0.00,,2013-04-07 21:34:00,
2013-04-07 16:45:00,77.0,57.0,30.01,South,172,1.0,7.0,51,0.00,,,0.00,,2013-04-07 21:45:00,
2013-04-07 16:53:00,76.0,57.0,30.01,SSW,210,1.0,6.0,52,0.00,,,0.00,,2013-04-07 21:53:00,
2013-04-07 17:05:00,77.0,57.0,30.01,East,95,2.0,7.0,51,0.00,,,0.00,,2013-04-07 22:05:00,
2013-04-07 17:15:00,77.0,57.0,30.01,East,95,2.0,7.0,51,0.00,,,0.00,,2013-04-07 22:15:00,
2013-04-07 17:24:00,78.0,56.0,30.01,SSW,210,5.0,9.0,46,0.00,,,0.00,,2013-04-07 22:24:00,
2013-04-07 17:34:00,77.0,56.0,30.01,SSW,210,4.0,11.0,49,0.00,,,0.00,,2013-04-07 22:34:00,
2013-04-07 17:43:00,77.0,56.0,30.01,SSW,210,4.0,11.0,49,0.00,,,0.00,,2013-04-07 22:43:00,
2013-04-07 17:53:00,77.0,57.0,30.01,WSW,242,3.0,-999.0,50,-99.99,,,-99.99,,2013-04-07 22:53:00,
2013-04-07 18:04:00,75.0,57.0,30.02,SSW,207,3.0,9.0,54,0.00,,,0.00,,2013-04-07 23:04:00,
2013-04-07 18:13:00,75.0,57.0,30.02,SSW,207,3.0,9.0,54,0.00,,,0.00,,2013-04-07 23:13:00,
2013-04-07 18:23:00,74.0,58.0,30.02,SW,226,1.0,4.0,58,0.00,,,0.00,,2013-04-07 23:23:00,
2013-04-07 18:33:00,73.0,58.0,30.02,ESE,122,3.0,6.0,59,0.00,,,0.00,,2013-04-07 23:33:00,
2013-04-07 18:43:00,73.0,58.0,30.02,ESE,122,3.0,6.0,59,0.00,,,0.00,,2013-04-07 23:43:00,
2013-04-07 18:52:00,74.0,57.0,30.01,WSW,245,2.0,6.0,56,0.00,,,0.00,,2013-04-07 23:52:00,
2013-04-07 19:03:00,73.0,58.0,30.01,SW,235,2.0,7.0,59,0.00,,,0.00,,2013-04-08 00:03:00,
2013-04-07 19:13:00,73.0,58.0,30.01,SW,235,2.0,7.0,59,0.00,,,0.00,,2013-04-08 00:13:00,
2013-04-07 19:23:00,72.0,57.0,30.02,SW,231,2.0,6.0,60,0.00,,,0.00,,2013-04-08 00:23:00,
2013-04-07 19:33:00,71.0,58.0,30.02,SSW,201,1.0,4.0,63,0.00,,,0.00,,2013-04-08 00:33:00,
2013-04-07 19:42:00,71.0,58.0,30.02,SSW,201,1.0,4.0,63,0.00,,,0.00,,2013-04-08 00:42:00,
2013-04-07 19:52:00,70.0,58.0,30.02,South,188,1.0,5.0,65,0.00,,,0.00,,2013-04-08 00:52:00,
2013-04-07 20:03:00,69.0,58.0,30.03,WSW,238,2.0,6.0,67,0.00,,,0.00,,2013-04-08 01:03:00,
2013-04-07 20:13:00,69.0,58.0,30.03,WSW,238,2.0,6.0,67,0.00,,,0.00,,2013-04-08 01:13:00,
2013-04-07 20:23:00,68.0,57.0,30.03,SW,235,2.0,4.0,69,0.00,,,0.00,,2013-04-08 01:23:00,
2013-04-07 20:34:00,67.0,57.0,30.04,SSW,208,2.0,6.0,70,0.00,,,0.00,,2013-04-08 01:34:00,
2013-04-07 20:44:00,67.0,57.0,30.04,SSW,208,2.0,6.0,70,0.00,,,0.00,,2013-04-08 01:44:00,
2013-04-07 20:54:00,67.0,58.0,30.04,SSW,211,1.0,4.0,72,0.00,,,0.00,,2013-04-08 01:54:00,
2013-04-07 21:03:00,66.0,57.0,30.04,SW,235,0.0,4.0,74,0.00,,,0.00,,2013-04-08 02:03:00,
2013-04-07 21:12:00,66.0,57.0,30.04,SW,235,0.0,4.0,74,0.00,,,0.00,,2013-04-08 02:12:00,
2013-04-07 21:22:00,65.0,57.0,30.04,SW,215,0.0,2.0,76,0.00,,,0.00,,2013-04-08 02:22:00,
2013-04-07 21:33:00,64.0,57.0,30.05,SE,137,0.0,0.0,77,0.00,,,0.00,,2013-04-08 02:33:00,
2013-04-07 21:48:00,64.0,57.0,30.05,SE,137,0.0,0.0,77,0.00,,,0.00,,2013-04-08 02:48:00,
2013-04-07 21:53:00,63.0,57.0,30.05,SSW,208,0.0,0.0,80,0.00,,,0.00,,2013-04-08 02:53:00,
2013-04-07 22:08:00,63.0,57.0,30.05,ESE,122,0.0,4.0,81,0.00,,,0.00,,2013-04-08 03:08:00,
2013-04-07 22:16:00,63.0,57.0,30.05,ESE,122,0.0,4.0,81,0.00,,,0.00,,2013-04-08 03:16:00,
2013-04-07 22:25:00,63.0,57.0,30.05,ESE,122,0.0,3.0,81,0.00,,,0.00,,2013-04-08 03:25:00,
2013-04-07 22:36:00,62.0,57.0,30.04,ESE,118,0.0,2.0,83,0.00,,,0.00,,2013-04-08 03:36:00,
2013-04-07 22:48:00,62.0,57.0,30.04,ESE,118,0.0,2.0,83,0.00,,,0.00,,2013-04-08 03:48:00,
2013-04-07 22:53:00,61.0,56.0,30.04,SE,134,0.0,1.0,85,0.00,,,0.00,,2013-04-08 03:53:00,
2013-04-07 23:03:00,61.0,57.0,30.04,SE,138,0.0,1.0,87,0.00,,,0.00,,2013-04-08 04:03:00,
2013-04-07 23:13:00,61.0,57.0,30.04,SE,138,0.0,1.0,87,0.00,,,0.00,,2013-04-08 04:13:00,
2013-04-07 23:23:00,60.0,56.0,30.04,SSE,166,0.0,1.0,88,0.00,,,0.00,,2013-04-08 04:23:00,
2013-04-07 23:34:00,60.0,57.0,30.03,SSW,208,0.0,0.0,89,0.00,,,0.00,,2013-04-08 04:34:00,
2013-04-07 23:44:00,60.0,57.0,30.03,SSW,208,0.0,0.0,89,0.00,,,0.00,,2013-04-08 04:44:00,
2013-04-07 23:52:00,59.0,56.0,30.03,SSW,208,0.0,0.0,90,0.00,,,0.00,,2013-04-08 04:52:00,